DAL67 KATL-KBOS

Flight info

Callsign DAL67
Flight time 2h 10m
Altitude 35000
Route PLMMR3 BURGG Q22 RBV Q419 JFK ROBUC3
Aircraft A321/M-SDE3FGHIRWY/LB1

Departure

Time 2026-05-05 16:16
Airport Hartsfield Jackson Atlanta International Airport (KATL)

Arrival

Time 2026-05-05 18:27
Airport Boston Logan International Airport (KBOS)
Time Latitude Longitude Altitude Speed Heading
2026-05-05 15:19 33.63958 -84.43644 1007 ft 0 kts 90°
2026-05-05 16:00 33.63958 -84.43662 1006 ft 4 kts 88°
2026-05-05 16:01 33.63958 -84.43692 1006 ft 4 kts 82°
2026-05-05 16:01 33.63949 -84.43715 1006 ft 4 kts 24°
2026-05-05 16:01 33.63926 -84.43721 1006 ft 2 kts
2026-05-05 16:01 33.63925 -84.43721 1006 ft 0 kts
2026-05-05 16:04 33.63926 -84.43721 1006 ft 1 kts
2026-05-05 16:04 33.63945 -84.43721 1006 ft 4 kts
2026-05-05 16:04 33.63986 -84.43721 1006 ft 8 kts
2026-05-05 16:05 33.64044 -84.43720 1006 ft 8 kts
2026-05-05 16:05 33.64092 -84.43720 1006 ft 6 kts 360°
2026-05-05 16:05 33.64132 -84.43721 1006 ft 6 kts 360°
2026-05-05 16:05 33.64176 -84.43721 1006 ft 7 kts 360°
2026-05-05 16:06 33.64227 -84.43721 1006 ft 8 kts 360°
2026-05-05 16:06 33.64285 -84.43722 1006 ft 9 kts 360°
2026-05-05 16:06 33.64360 -84.43722 1006 ft 13 kts 360°
2026-05-05 16:06 33.64455 -84.43722 1006 ft 13 kts
2026-05-05 16:07 33.64530 -84.43684 1006 ft 11 kts 55°
2026-05-05 16:07 33.64542 -84.43593 1006 ft 11 kts 89°
2026-05-05 16:07 33.64543 -84.43500 1007 ft 11 kts 89°
2026-05-05 16:07 33.64542 -84.43404 1007 ft 11 kts 91°
2026-05-05 16:08 33.64541 -84.43301 1007 ft 13 kts 90°
2026-05-05 16:08 33.64541 -84.43183 1007 ft 14 kts 89°
2026-05-05 16:08 33.64542 -84.43073 1007 ft 12 kts 89°
2026-05-05 16:08 33.64541 -84.42972 1007 ft 12 kts 91°
2026-05-05 16:09 33.64541 -84.42867 1006 ft 13 kts 90°
2026-05-05 16:09 33.64542 -84.42758 1006 ft 13 kts 90°
2026-05-05 16:09 33.64542 -84.42644 1006 ft 14 kts 90°
2026-05-05 16:09 33.64543 -84.42524 1006 ft 15 kts 90°
2026-05-05 16:10 33.64542 -84.42398 1006 ft 15 kts 90°
2026-05-05 16:10 33.64541 -84.42269 1006 ft 16 kts 90°
2026-05-05 16:10 33.64542 -84.42137 1006 ft 16 kts 90°
2026-05-05 16:10 33.64542 -84.42004 1006 ft 16 kts 90°
2026-05-05 16:11 33.64541 -84.41875 1006 ft 15 kts 90°
2026-05-05 16:11 33.64545 -84.41575 1007 ft 9 kts 91°
2026-05-05 16:12 33.64543 -84.41502 1007 ft 8 kts 91°
2026-05-05 16:12 33.64542 -84.41327 1007 ft 14 kts 89°
2026-05-05 16:13 33.64539 -84.40867 1006 ft 19 kts 92°
2026-05-05 16:13 33.64511 -84.40726 1006 ft 15 kts 92°
2026-05-05 16:13 33.64515 -84.40612 1006 ft 13 kts 74°
2026-05-05 16:14 33.64648 -84.40577 1004 ft 10 kts 337°
2026-05-05 16:14 33.64679 -84.40643 1004 ft 0 kts 272°
2026-05-05 16:15 33.64678 -84.40848 1006 ft 55 kts 269°
2026-05-05 16:16 33.64681 -84.42728 1006 ft 162 kts 270°
2026-05-05 16:16 33.64730 -84.45533 2151 ft 167 kts 272°
2026-05-05 16:17 33.65485 -84.48193 3429 ft 172 kts 296°
2026-05-05 16:17 33.66105 -84.49501 3663 ft 189 kts 294°
2026-05-05 16:18 33.67287 -84.52652 3980 ft 225 kts 290°
2026-05-05 16:18 33.67943 -84.54467 4091 ft 249 kts 290°
2026-05-05 16:18 33.70139 -84.57908 4960 ft 281 kts 336°
2026-05-05 16:19 33.72046 -84.58347 5585 ft 287 kts 356°
2026-05-05 16:19 33.74050 -84.58396 6280 ft 290 kts
2026-05-05 16:19 33.78099 -84.57943 7610 ft 297 kts 22°
2026-05-05 16:20 33.80908 -84.54468 8821 ft 298 kts 75°
2026-05-05 16:20 33.81214 -84.49523 10070 ft 300 kts 92°
2026-05-05 16:21 33.81241 -84.44316 10638 ft 331 kts 91°
2026-05-05 16:22 33.81292 -84.35296 11195 ft 382 kts 90°
2026-05-05 16:22 33.82233 -84.28910 12275 ft 393 kts 78°
2026-05-05 16:23 33.83408 -84.22484 13332 ft 400 kts 78°
2026-05-05 16:23 33.83996 -84.19208 13857 ft 403 kts 78°
2026-05-05 16:23 33.85195 -84.12550 14854 ft 410 kts 78°
2026-05-05 16:24 33.85803 -84.09181 15340 ft 414 kts 78°
2026-05-05 16:24 33.86417 -84.05784 15825 ft 417 kts 77°
2026-05-05 16:24 33.87439 -84.00076 16604 ft 421 kts 77°
2026-05-05 16:25 33.88267 -83.95443 17174 ft 426 kts 77°
2026-05-05 16:25 33.89435 -83.89657 17858 ft 430 kts 69°
2026-05-05 16:25 33.90555 -83.86305 18274 ft 432 kts 65°
2026-05-05 16:26 33.92896 -83.79581 19080 ft 438 kts 65°
2026-05-05 16:26 33.95383 -83.72844 19852 ft 441 kts 58°
2026-05-05 16:27 33.97087 -83.69774 20196 ft 442 kts 50°
2026-05-05 16:27 33.98929 -83.66792 20576 ft 445 kts 50°
2026-05-05 16:27 34.00754 -83.63825 20927 ft 447 kts 50°
2026-05-05 16:27 34.02606 -83.60802 21304 ft 449 kts 50°
2026-05-05 16:28 34.04467 -83.57763 21659 ft 452 kts 50°
2026-05-05 16:28 34.06341 -83.54708 21998 ft 455 kts 50°
2026-05-05 16:28 34.08228 -83.51633 22347 ft 457 kts 50°
2026-05-05 16:28 34.10120 -83.48547 22687 ft 459 kts 50°
2026-05-05 16:29 34.12025 -83.45430 23005 ft 462 kts 50°
2026-05-05 16:29 34.13934 -83.42302 23317 ft 464 kts 50°
2026-05-05 16:29 34.15850 -83.39153 23638 ft 467 kts 50°
2026-05-05 16:29 34.17773 -83.35993 23949 ft 469 kts 50°
2026-05-05 16:30 34.19713 -83.32809 24268 ft 471 kts 50°
2026-05-05 16:30 34.21657 -83.29621 24569 ft 473 kts 49°
2026-05-05 16:30 34.23612 -83.26408 24880 ft 475 kts 49°
2026-05-05 16:30 34.25568 -83.23190 25174 ft 477 kts 49°
2026-05-05 16:31 34.27538 -83.19948 25463 ft 479 kts 49°
2026-05-05 16:31 34.29507 -83.16701 25742 ft 480 kts 49°
2026-05-05 16:31 34.31488 -83.13436 26002 ft 482 kts 49°
2026-05-05 16:31 34.33452 -83.10209 26272 ft 483 kts 48°
2026-05-05 16:32 34.35459 -83.06927 26555 ft 485 kts 48°
2026-05-05 16:32 34.37472 -83.03649 26831 ft 486 kts 48°
2026-05-05 16:32 34.39494 -83.00353 27087 ft 488 kts 48°
2026-05-05 16:32 34.41518 -82.97047 27407 ft 488 kts 47°
2026-05-05 16:33 34.43536 -82.93740 27767 ft 487 kts 48°
2026-05-05 16:33 34.45541 -82.90438 28126 ft 485 kts 47°
2026-05-05 16:33 34.47537 -82.87148 28450 ft 485 kts 47°
2026-05-05 16:33 34.49532 -82.83856 28773 ft 484 kts 47°
2026-05-05 16:34 34.51527 -82.80571 29087 ft 483 kts 46°
2026-05-05 16:34 34.53522 -82.77296 29426 ft 482 kts 46°
2026-05-05 16:34 34.55507 -82.74033 29763 ft 480 kts 46°
2026-05-05 16:34 34.57491 -82.70762 30069 ft 480 kts 46°
2026-05-05 16:35 34.59464 -82.67502 30383 ft 479 kts 46°
2026-05-05 16:35 34.61430 -82.64248 30685 ft 478 kts 45°
2026-05-05 16:35 34.63392 -82.60997 31002 ft 476 kts 45°
2026-05-05 16:35 34.65321 -82.57801 31300 ft 475 kts 45°
2026-05-05 16:36 34.67274 -82.54563 31618 ft 474 kts 45°
2026-05-05 16:36 34.69203 -82.51324 31946 ft 473 kts 45°
2026-05-05 16:36 34.71111 -82.48071 32255 ft 473 kts 45°
2026-05-05 16:36 34.73006 -82.44814 32566 ft 471 kts 44°
2026-05-05 16:37 34.74893 -82.41565 32865 ft 470 kts 44°
2026-05-05 16:37 34.76783 -82.38317 33176 ft 469 kts 44°
2026-05-05 16:37 34.78667 -82.35092 33488 ft 466 kts 43°
2026-05-05 16:37 34.80547 -82.31880 33746 ft 465 kts 43°
2026-05-05 16:38 34.82417 -82.28686 34012 ft 464 kts 43°
2026-05-05 16:38 34.84285 -82.25495 34276 ft 463 kts 42°
2026-05-05 16:38 34.86150 -82.22305 34517 ft 462 kts 43°
2026-05-05 16:38 34.88012 -82.19114 34740 ft 461 kts 42°
2026-05-05 16:39 34.89871 -82.15926 34958 ft 461 kts 43°
2026-05-05 16:39 34.91724 -82.12742 35091 ft 462 kts 43°
2026-05-05 16:39 34.95440 -82.06344 35117 ft 461 kts 43°
2026-05-05 16:40 34.99162 -81.99953 35108 ft 463 kts 42°
2026-05-05 16:40 35.02845 -81.93574 35110 ft 461 kts 44°
2026-05-05 16:41 35.06579 -81.87282 35117 ft 457 kts 41°
2026-05-05 16:41 35.10449 -81.81146 35082 ft 454 kts 40°
2026-05-05 16:42 35.14333 -81.75036 35107 ft 455 kts 41°
2026-05-05 16:42 35.18186 -81.68844 35112 ft 458 kts 42°
2026-05-05 16:43 35.22006 -81.62594 35111 ft 459 kts 42°
2026-05-05 16:43 35.25830 -81.56343 35098 ft 459 kts 41°
2026-05-05 16:44 35.29669 -81.50100 35104 ft 461 kts 42°
2026-05-05 16:44 35.33499 -81.43869 35112 ft 459 kts 42°
2026-05-05 16:45 35.37305 -81.37622 35108 ft 457 kts 41°
2026-05-05 16:45 35.41142 -81.31370 35114 ft 458 kts 43°
2026-05-05 16:46 35.44987 -81.25091 35111 ft 462 kts 43°
2026-05-05 16:46 35.48835 -81.18811 35122 ft 460 kts 43°
2026-05-05 16:47 35.52651 -81.12519 35104 ft 460 kts 43°
2026-05-05 16:47 35.56458 -81.06218 35097 ft 460 kts 43°
2026-05-05 16:48 35.60294 -80.99918 35124 ft 460 kts 44°
2026-05-05 16:48 35.64086 -80.93587 35117 ft 459 kts 43°
2026-05-05 16:49 35.67821 -80.87350 35105 ft 455 kts 44°
2026-05-05 16:49 35.71597 -80.81122 35098 ft 453 kts 43°
2026-05-05 16:50 35.75380 -80.74904 35082 ft 455 kts 44°
2026-05-05 16:50 35.79155 -80.68639 35096 ft 456 kts 44°
2026-05-05 16:51 35.82920 -80.62340 35108 ft 456 kts 44°
2026-05-05 16:51 35.86688 -80.56043 35118 ft 456 kts 44°
2026-05-05 16:52 35.90453 -80.49735 35121 ft 456 kts 45°
2026-05-05 16:52 35.94180 -80.43476 35114 ft 456 kts 45°
2026-05-05 16:53 35.97932 -80.37179 35113 ft 455 kts 45°
2026-05-05 16:53 36.01682 -80.30896 35110 ft 455 kts 45°
2026-05-05 16:54 36.05428 -80.24604 35108 ft 455 kts 45°
2026-05-05 16:54 36.09171 -80.18290 35111 ft 454 kts 45°
2026-05-05 16:55 36.12908 -80.11983 35107 ft 454 kts 45°
2026-05-05 16:55 36.16636 -80.05678 35103 ft 454 kts 45°
2026-05-05 16:56 36.20368 -79.99364 35102 ft 454 kts 46°
2026-05-05 16:56 36.24094 -79.93058 35101 ft 454 kts 46°
2026-05-05 16:57 36.27823 -79.86735 35101 ft 454 kts 46°
2026-05-05 16:57 36.31525 -79.80442 35086 ft 455 kts 46°
2026-05-05 16:58 36.35247 -79.74082 35084 ft 456 kts 46°
2026-05-05 16:58 36.38969 -79.67710 35085 ft 456 kts 46°
2026-05-05 16:59 36.42696 -79.61338 35088 ft 457 kts 46°
2026-05-05 16:59 36.46427 -79.54947 35085 ft 457 kts 46°
2026-05-05 17:00 36.50152 -79.48542 35078 ft 458 kts 47°
2026-05-05 17:00 36.53883 -79.42120 35082 ft 458 kts 47°
2026-05-05 17:01 36.57610 -79.35693 35077 ft 458 kts 47°
2026-05-05 17:01 36.61317 -79.29284 35078 ft 459 kts 47°
2026-05-05 17:02 36.65054 -79.22829 35076 ft 460 kts 48°
2026-05-05 17:02 36.68787 -79.16356 35074 ft 460 kts 48°
2026-05-05 17:03 36.72521 -79.09865 35070 ft 461 kts 48°
2026-05-05 17:03 36.76252 -79.03364 35066 ft 461 kts 49°
2026-05-05 17:04 36.79989 -78.96848 35068 ft 462 kts 49°
2026-05-05 17:04 36.83724 -78.90318 35067 ft 463 kts 49°
2026-05-05 17:05 36.87451 -78.83758 35059 ft 464 kts 49°
2026-05-05 17:05 36.91142 -78.77211 35060 ft 464 kts 50°
2026-05-05 17:06 36.94858 -78.70609 35058 ft 464 kts 50°
2026-05-05 17:06 36.98584 -78.64018 35059 ft 464 kts 50°
2026-05-05 17:07 37.02302 -78.57411 35058 ft 465 kts 50°
2026-05-05 17:07 37.06017 -78.50784 35058 ft 465 kts 50°
2026-05-05 17:08 37.09740 -78.44158 35056 ft 465 kts 50°
2026-05-05 17:08 37.13458 -78.37516 35057 ft 466 kts 50°
2026-05-05 17:09 37.17171 -78.30862 35058 ft 466 kts 51°
2026-05-05 17:09 37.20775 -78.24088 35058 ft 469 kts 57°
2026-05-05 17:10 37.23940 -78.16931 35054 ft 469 kts 57°
2026-05-05 17:10 37.27098 -78.09819 35052 ft 469 kts 57°
2026-05-05 17:11 37.30275 -78.02657 35053 ft 469 kts 57°
2026-05-05 17:11 37.33446 -77.95486 35055 ft 470 kts 58°
2026-05-05 17:12 37.36608 -77.88306 35049 ft 470 kts 58°
2026-05-05 17:12 37.39777 -77.81108 35049 ft 470 kts 58°
2026-05-05 17:13 37.42937 -77.73914 35046 ft 470 kts 58°
2026-05-05 17:13 37.46092 -77.66709 35047 ft 470 kts 58°
2026-05-05 17:14 37.49251 -77.59488 35049 ft 471 kts 58°
2026-05-05 17:14 37.52387 -77.52308 35049 ft 471 kts 58°
2026-05-05 17:15 37.55534 -77.45061 35043 ft 471 kts 58°
2026-05-05 17:15 37.58676 -77.37813 35041 ft 471 kts 59°
2026-05-05 17:16 37.61819 -77.30549 35038 ft 472 kts 59°
2026-05-05 17:16 37.64964 -77.23275 35040 ft 472 kts 59°
2026-05-05 17:17 37.68371 -77.16225 35041 ft 469 kts 47°
2026-05-05 17:17 37.73116 -77.10737 35038 ft 460 kts 29°
2026-05-05 17:18 37.78634 -77.06827 35033 ft 458 kts 25°
2026-05-05 17:18 37.84225 -77.02949 35028 ft 458 kts 25°
2026-05-05 17:19 37.89813 -76.99055 35023 ft 459 kts 25°
2026-05-05 17:19 37.95409 -76.95164 35020 ft 459 kts 25°
2026-05-05 17:20 38.01010 -76.91268 35019 ft 460 kts 25°
2026-05-05 17:20 38.06623 -76.87359 35022 ft 460 kts 25°
2026-05-05 17:21 38.11288 -76.84108 35022 ft 460 kts 25°
2026-05-05 17:22 38.19706 -76.78217 35018 ft 460 kts 25°
2026-05-05 17:22 38.25222 -76.74063 35012 ft 464 kts 34°
2026-05-05 17:23 38.30153 -76.68791 35015 ft 466 kts 37°
2026-05-05 17:23 38.35099 -76.63442 35005 ft 466 kts 37°
2026-05-05 17:24 38.40049 -76.58088 35009 ft 467 kts 37°
2026-05-05 17:24 38.45010 -76.52734 35003 ft 467 kts 37°
2026-05-05 17:25 38.49993 -76.47389 35001 ft 468 kts 37°
2026-05-05 17:25 38.54975 -76.42047 35001 ft 468 kts 37°
2026-05-05 17:26 38.59962 -76.36680 35001 ft 468 kts 37°
2026-05-05 17:26 38.64907 -76.31329 35004 ft 469 kts 37°
2026-05-05 17:27 38.69890 -76.25942 35006 ft 469 kts 37°
2026-05-05 17:27 38.74874 -76.20549 35011 ft 469 kts 37°
2026-05-05 17:28 38.79856 -76.15143 35008 ft 469 kts 37°
2026-05-05 17:28 38.84826 -76.09726 35004 ft 469 kts 37°
2026-05-05 17:29 38.89798 -76.04305 35007 ft 469 kts 37°
2026-05-05 17:29 38.94774 -75.98878 35007 ft 469 kts 38°
2026-05-05 17:30 38.99684 -75.93343 34988 ft 470 kts 40°
2026-05-05 17:30 39.04466 -75.87582 34984 ft 471 kts 41°
2026-05-05 17:31 39.09198 -75.81811 34980 ft 472 kts 41°
2026-05-05 17:31 39.13998 -75.76056 34980 ft 472 kts 40°
2026-05-05 17:32 39.18827 -75.70322 34977 ft 472 kts 40°
2026-05-05 17:32 39.23642 -75.64564 34973 ft 472 kts 40°
2026-05-05 17:33 39.28448 -75.58778 34971 ft 472 kts 41°
2026-05-05 17:33 39.33245 -75.52982 34973 ft 473 kts 41°
2026-05-05 17:34 39.38048 -75.47185 34977 ft 472 kts 41°
2026-05-05 17:34 39.42852 -75.41387 34974 ft 472 kts 41°
2026-05-05 17:35 39.47651 -75.35582 34975 ft 472 kts 41°
2026-05-05 17:35 39.52413 -75.29803 34974 ft 472 kts 41°
2026-05-05 17:36 39.57201 -75.23969 34972 ft 472 kts 41°
2026-05-05 17:36 39.61993 -75.18136 34971 ft 472 kts 41°
2026-05-05 17:37 39.66784 -75.12281 34970 ft 472 kts 41°
2026-05-05 17:37 39.71648 -75.06540 34967 ft 472 kts 39°
2026-05-05 17:38 39.76649 -75.00995 34963 ft 472 kts 38°
2026-05-05 17:38 39.81627 -74.95510 34962 ft 472 kts 39°
2026-05-05 17:39 39.86593 -74.89923 34959 ft 472 kts 39°
2026-05-05 17:39 39.91661 -74.84503 34954 ft 470 kts 33°
2026-05-05 17:40 39.97011 -74.79568 34947 ft 471 kts 33°
2026-05-05 17:40 40.02350 -74.74622 34944 ft 471 kts 37°
2026-05-05 17:41 40.07011 -74.68583 34948 ft 473 kts 47°
2026-05-05 17:41 40.11417 -74.62245 34949 ft 473 kts 47°
2026-05-05 17:42 40.15837 -74.55868 34940 ft 473 kts 47°
2026-05-05 17:42 40.20298 -74.49537 34945 ft 473 kts 41°
2026-05-05 17:43 40.25116 -74.43712 34935 ft 473 kts 50°
2026-05-05 17:43 40.29267 -74.37023 34945 ft 474 kts 50°
2026-05-05 17:44 40.33413 -74.30307 34938 ft 474 kts 50°
2026-05-05 17:44 40.37553 -74.23571 34939 ft 474 kts 51°
2026-05-05 17:45 40.41692 -74.16827 34939 ft 475 kts 51°
2026-05-05 17:45 40.45830 -74.10081 34935 ft 474 kts 51°
2026-05-05 17:46 40.49964 -74.03327 34936 ft 474 kts 51°
2026-05-05 17:46 40.54098 -73.96561 34947 ft 474 kts 51°
2026-05-05 17:47 40.58222 -73.89785 34950 ft 474 kts 51°
2026-05-05 17:47 40.62312 -73.83057 34958 ft 474 kts 51°
2026-05-05 17:48 40.66418 -73.76272 34960 ft 474 kts 51°
2026-05-05 17:48 40.70528 -73.69471 34960 ft 474 kts 51°
2026-05-05 17:48 40.72576 -73.66080 34573 ft 472 kts 51°
2026-05-05 17:49 40.74619 -73.62699 33913 ft 473 kts 51°
2026-05-05 17:49 40.76673 -73.59302 33242 ft 474 kts 51°
2026-05-05 17:49 40.78728 -73.55895 32568 ft 475 kts 51°
2026-05-05 17:49 40.80790 -73.52463 31611 ft 482 kts 51°
2026-05-05 17:50 40.82895 -73.48949 30470 ft 492 kts 52°
2026-05-05 17:50 40.85034 -73.45370 29452 ft 498 kts 52°
2026-05-05 17:50 40.87219 -73.41817 28332 ft 495 kts 50°
2026-05-05 17:50 40.89457 -73.38419 27476 ft 484 kts 47°
2026-05-05 17:51 40.91724 -73.35139 27160 ft 481 kts 47°
2026-05-05 17:51 40.93994 -73.31907 26941 ft 476 kts 47°
2026-05-05 17:51 40.96232 -73.28703 26535 ft 471 kts 47°
2026-05-05 17:51 40.98432 -73.25511 24986 ft 471 kts 47°
2026-05-05 17:52 41.00614 -73.22302 23883 ft 463 kts 47°
2026-05-05 17:52 41.02722 -73.19171 23389 ft 461 kts 48°
2026-05-05 17:52 41.04846 -73.15998 23138 ft 459 kts 48°
2026-05-05 17:52 41.06954 -73.12843 22944 ft 459 kts 48°
2026-05-05 17:53 41.09073 -73.09673 22905 ft 459 kts 48°
2026-05-05 17:53 41.11194 -73.06503 22925 ft 460 kts 48°
2026-05-05 17:53 41.13322 -73.03328 22925 ft 460 kts 48°
2026-05-05 17:53 41.15450 -73.00150 22925 ft 460 kts 48°
2026-05-05 17:54 41.17571 -72.96973 22924 ft 460 kts 48°
2026-05-05 17:54 41.19690 -72.93780 22924 ft 460 kts 50°
2026-05-05 17:54 41.21567 -72.90326 22908 ft 461 kts 59°
2026-05-05 17:54 41.23083 -72.86579 22814 ft 460 kts 64°
2026-05-05 17:55 41.24533 -72.82792 22665 ft 460 kts 64°
2026-05-05 17:55 41.25977 -72.79010 22408 ft 458 kts 64°
2026-05-05 17:55 41.27416 -72.75233 22158 ft 457 kts 64°
2026-05-05 17:55 41.28844 -72.71474 21906 ft 455 kts 64°
2026-05-05 17:56 41.30268 -72.67726 21657 ft 453 kts 64°
2026-05-05 17:56 41.31687 -72.63987 21406 ft 452 kts 64°
2026-05-05 17:56 41.33102 -72.60256 21161 ft 451 kts 64°
2026-05-05 17:56 41.34508 -72.56550 20940 ft 450 kts 64°
2026-05-05 17:57 41.35920 -72.52828 20934 ft 449 kts 64°
2026-05-05 17:57 41.37332 -72.49109 20936 ft 451 kts 64°
2026-05-05 17:57 41.38744 -72.45392 20936 ft 450 kts 64°
2026-05-05 17:57 41.40157 -72.41669 20935 ft 450 kts 64°
2026-05-05 17:58 41.41543 -72.37994 20938 ft 450 kts 64°
2026-05-05 17:58 41.42965 -72.34215 20934 ft 450 kts 64°
2026-05-05 17:58 41.44344 -72.30535 20933 ft 450 kts 64°
2026-05-05 17:58 41.45743 -72.26801 20930 ft 450 kts 64°
2026-05-05 17:59 41.47141 -72.23073 20929 ft 450 kts 64°
2026-05-05 17:59 41.48542 -72.19338 20869 ft 451 kts 65°
2026-05-05 17:59 41.49932 -72.15596 20614 ft 449 kts 65°
2026-05-05 17:59 41.51301 -72.11859 20364 ft 448 kts 65°
2026-05-05 18:00 41.52654 -72.08132 20108 ft 446 kts 66°
2026-05-05 18:00 41.54001 -72.04403 19862 ft 445 kts 66°
2026-05-05 18:00 41.55344 -72.00696 19613 ft 443 kts 66°
2026-05-05 18:00 41.56633 -71.96962 19359 ft 442 kts 68°
2026-05-05 18:01 41.57819 -71.93187 19108 ft 439 kts 70°
2026-05-05 18:01 41.58931 -71.89399 18855 ft 438 kts 71°
2026-05-05 18:01 41.60010 -71.85604 18604 ft 436 kts 71°
2026-05-05 18:01 41.61077 -71.81816 18353 ft 435 kts 71°
2026-05-05 18:02 41.62154 -71.78038 18103 ft 434 kts 71°
2026-05-05 18:02 41.63242 -71.74288 17851 ft 429 kts 71°
2026-05-05 18:02 41.64322 -71.70626 17599 ft 418 kts 70°
2026-05-05 18:02 41.65383 -71.67056 17347 ft 408 kts 70°
2026-05-05 18:03 41.66416 -71.63573 17097 ft 398 kts 70°
2026-05-05 18:03 41.67419 -71.60170 16845 ft 389 kts 70°
2026-05-05 18:03 41.68400 -71.56830 16591 ft 381 kts 70°
2026-05-05 18:03 41.69358 -71.53560 16374 ft 373 kts 70°
2026-05-05 18:04 41.70291 -71.50357 16118 ft 366 kts 70°
2026-05-05 18:04 41.71203 -71.47222 15865 ft 361 kts 70°
2026-05-05 18:04 41.72107 -71.44123 15621 ft 360 kts 69°
2026-05-05 18:04 41.73242 -71.41149 15381 ft 359 kts 60°
2026-05-05 18:05 41.74486 -71.38254 15124 ft 358 kts 60°
2026-05-05 18:05 41.75722 -71.35369 14881 ft 357 kts 60°
2026-05-05 18:05 41.76956 -71.32490 14639 ft 356 kts 60°
2026-05-05 18:05 41.78184 -71.29609 14403 ft 355 kts 60°
2026-05-05 18:06 41.79405 -71.26745 14122 ft 354 kts 60°
2026-05-05 18:06 41.79816 -71.25778 13985 ft 354 kts 60°
2026-05-05 18:06 41.81825 -71.21052 13539 ft 344 kts 60°
2026-05-05 18:06 41.83005 -71.18276 13196 ft 342 kts 60°
2026-05-05 18:07 41.84180 -71.15516 12815 ft 340 kts 60°
2026-05-05 18:07 41.85352 -71.12765 12450 ft 339 kts 60°
2026-05-05 18:07 41.86521 -71.10028 12092 ft 337 kts 59°
2026-05-05 18:07 41.87695 -71.07305 11756 ft 336 kts 59°
2026-05-05 18:08 41.88862 -71.04615 11519 ft 331 kts 59°
2026-05-05 18:08 41.90005 -71.01983 11373 ft 329 kts 59°
2026-05-05 18:08 41.91157 -70.99323 11223 ft 330 kts 59°
2026-05-05 18:08 41.92308 -70.96656 11075 ft 330 kts 59°
2026-05-05 18:09 41.93452 -70.94000 10915 ft 328 kts 59°
2026-05-05 18:09 41.94590 -70.91351 10796 ft 327 kts 59°
2026-05-05 18:09 41.95731 -70.88698 10682 ft 328 kts 60°
2026-05-05 18:09 41.96869 -70.86048 10535 ft 328 kts 60°
2026-05-05 18:10 41.98004 -70.83397 10383 ft 327 kts 60°
2026-05-05 18:10 41.99142 -70.80744 10236 ft 327 kts 60°
2026-05-05 18:10 42.00274 -70.78095 10095 ft 327 kts 60°
2026-05-05 18:10 42.01544 -70.75561 9912 ft 327 kts 49°
2026-05-05 18:11 42.03064 -70.73276 9561 ft 327 kts 46°
2026-05-05 18:11 42.04567 -70.71033 9237 ft 326 kts 47°
2026-05-05 18:11 42.06080 -70.68774 8938 ft 325 kts 47°
2026-05-05 18:11 42.07596 -70.66507 8628 ft 325 kts 47°
2026-05-05 18:12 42.09107 -70.64256 8304 ft 323 kts 44°
2026-05-05 18:12 42.10834 -70.62369 7994 ft 318 kts 28°
2026-05-05 18:12 42.12819 -70.61141 7703 ft 312 kts 12°
2026-05-05 18:12 42.14919 -70.60496 7411 ft 309 kts
2026-05-05 18:13 42.17028 -70.59921 7106 ft 308 kts
2026-05-05 18:13 42.19121 -70.59338 6811 ft 307 kts
2026-05-05 18:13 42.21212 -70.58748 6521 ft 306 kts
2026-05-05 18:13 42.23293 -70.58163 6236 ft 305 kts
2026-05-05 18:14 42.25369 -70.57582 5934 ft 303 kts
2026-05-05 18:14 42.27428 -70.57004 5644 ft 302 kts
2026-05-05 18:14 42.29470 -70.56457 5357 ft 301 kts
2026-05-05 18:14 42.31526 -70.56477 5083 ft 291 kts 343°
2026-05-05 18:15 42.33414 -70.57287 4948 ft 281 kts 325°
2026-05-05 18:15 42.34997 -70.58726 4957 ft 271 kts 309°
2026-05-05 18:15 42.36350 -70.60494 4960 ft 271 kts 308°
2026-05-05 18:15 42.37700 -70.62274 4962 ft 271 kts 308°
2026-05-05 18:16 42.39054 -70.64050 4952 ft 271 kts 308°
2026-05-05 18:16 42.40403 -70.65817 4946 ft 270 kts 308°
2026-05-05 18:16 42.41297 -70.66990 4950 ft 271 kts 308°
2026-05-05 18:16 42.42651 -70.68765 4947 ft 271 kts 308°
2026-05-05 18:17 42.44000 -70.70540 4938 ft 271 kts 308°
2026-05-05 18:17 42.45351 -70.72326 4931 ft 271 kts 308°
2026-05-05 18:17 42.46703 -70.74112 4928 ft 272 kts 308°
2026-05-05 18:17 42.48060 -70.75901 4925 ft 273 kts 308°
2026-05-05 18:18 42.49414 -70.77692 4921 ft 272 kts 308°
2026-05-05 18:18 42.50744 -70.79437 4913 ft 257 kts 308°
2026-05-05 18:18 42.52164 -70.80830 4914 ft 254 kts 330°
2026-05-05 18:18 42.53905 -70.81277 4921 ft 266 kts 359°
2026-05-05 18:19 42.55722 -70.80656 4819 ft 271 kts 15°
2026-05-05 18:19 42.57462 -70.79814 4660 ft 261 kts 16°
2026-05-05 18:19 42.59193 -70.79285 4343 ft 250 kts 354°
2026-05-05 18:19 42.60793 -70.79798 4072 ft 228 kts 321°
2026-05-05 18:20 42.61831 -70.81238 3729 ft 205 kts 286°
2026-05-05 18:20 42.62095 -70.83049 3375 ft 193 kts 264°
2026-05-05 18:20 42.62059 -70.84863 3078 ft 189 kts 257°
2026-05-05 18:20 42.61783 -70.86593 3009 ft 186 kts 243°
2026-05-05 18:21 42.61086 -70.88053 3019 ft 183 kts 224°
2026-05-05 18:21 42.60058 -70.89042 3020 ft 183 kts 206°
2026-05-05 18:21 42.58870 -70.89635 3009 ft 180 kts 203°
2026-05-05 18:21 42.57685 -70.90211 3012 ft 181 kts 203°
2026-05-05 18:22 42.56501 -70.90787 3015 ft 180 kts 202°
2026-05-05 18:22 42.55319 -70.91364 3022 ft 181 kts 202°
2026-05-05 18:22 42.54143 -70.91937 3022 ft 179 kts 202°
2026-05-05 18:22 42.52973 -70.92509 3032 ft 179 kts 202°
2026-05-05 18:23 42.51812 -70.93074 2954 ft 179 kts 202°
2026-05-05 18:23 42.50644 -70.93642 2752 ft 179 kts 202°
2026-05-05 18:23 42.49462 -70.94218 2526 ft 178 kts 200°
2026-05-05 18:23 42.48317 -70.94773 2312 ft 173 kts 200°
2026-05-05 18:24 42.47197 -70.95316 2068 ft 168 kts 199°
2026-05-05 18:24 42.46098 -70.95850 1851 ft 165 kts 199°
2026-05-05 18:24 42.45033 -70.96367 1636 ft 160 kts 200°
2026-05-05 18:24 42.44000 -70.96868 1442 ft 151 kts 200°
2026-05-05 18:25 42.43020 -70.97343 1211 ft 146 kts 200°
2026-05-05 18:25 42.42401 -70.97644 1102 ft 141 kts 199°
2026-05-05 18:25 42.41191 -70.98229 851 ft 136 kts 199°
2026-05-05 18:25 42.40303 -70.98659 671 ft 137 kts 199°
2026-05-05 18:26 42.39399 -70.99099 495 ft 138 kts 199°
2026-05-05 18:26 42.38498 -70.99535 308 ft 137 kts 199°
2026-05-05 18:26 42.37591 -70.99982 95 ft 138 kts 199°
2026-05-05 18:26 42.36744 -71.00403 24 ft 113 kts 199°
2026-05-05 18:27 42.36180 -71.00657 24 ft 56 kts 199°
2026-05-05 18:27 42.35985 -71.00833 21 ft 26 kts 229°
2026-05-05 18:27 42.35917 -71.00935 20 ft 11 kts 227°
2026-05-05 18:27 42.35873 -71.01002 21 ft 8 kts 227°
2026-05-05 18:28 42.35834 -71.01090 23 ft 5 kts 258°
2026-05-05 18:28 42.35839 -71.01185 23 ft 16 kts 276°
2026-05-05 18:28 42.35856 -71.01365 25 ft 19 kts 278°
2026-05-05 18:29 42.35879 -71.01529 27 ft 15 kts 281°
2026-05-05 18:29 42.35898 -71.01657 29 ft 13 kts 281°
2026-05-05 18:29 42.35916 -71.01782 27 ft 14 kts 282°
2026-05-05 18:29 42.35959 -71.01910 26 ft 16 kts 301°
2026-05-05 18:30 42.36017 -71.02039 25 ft 16 kts 300°
2026-05-05 18:30 42.36071 -71.02166 25 ft 15 kts 300°
2026-05-05 18:30 42.36142 -71.02259 24 ft 14 kts 332°
2026-05-05 18:30 42.36173 -71.02351 25 ft 10 kts 281°
2026-05-05 18:31 42.36185 -71.02432 25 ft 8 kts 282°
2026-05-05 18:31 42.36186 -71.02439 25 ft 0 kts 282°